Location: Chrząstowo
(52.0654°N, 17.1290°E)
Time: 05:56:43
(UTC+01:00)

Envisat - Pass Details

Date: 16 December 2019
Orbit: 764 x 766 km, 98.1° (Epoch: 25 January)

Event Time Altitude Azimuth Distance (km) Brightness Sun altitude
Rises 18:14:24 0° 184° (S) 3,222 6.4 -22.3°
Reaches altitude 10° 18:16:49 10° 192° (SSW) 2,301 5.7 -22.7°
Maximum altitude 18:21:37 42° 263° (W) 1,090 4.2 -23.4°
Drops below altitude 10° 18:26:28 10° 334° (NNW) 2,317 5.7 -24.1°
Sets 18:28:54 0° 341° (NNW) 3,248 6.4 -24.5°
